Location: Ahausen
(50.4985°N, 8.2722°E)
Time: 11:23:34
(UTC+00:00)

USA 238 - Pass Details

Date: 18 September 2020
Orbit: 1006 x 1206 km, 63.4° (Epoch: 28 October)

Event Time Altitude Azimuth Distance (km) Brightness Sun altitude
Rises 19:31:43 0° 316° (NW) 3,933 8.0 -18.9°
Reaches altitude 10° 19:34:21 10° 314° (NW) 3,001 7.2 -19.3°
Maximum altitude 19:41:31 74° 231° (SW) 1,203 3.9 -20.3°
Enters shadow 19:45:45 28° 153° (SSE) 2,040 4.7 -20.9°
